OPS 4682 DEB, 14716

Orbit data source: Space-Track

OPS 4682 DEB, 14716 is space debris in LEO originally from a launch on Sat, 03 Apr 1965 UTC launched from the Air Force Western Test Range (AFWTR). Debris objects in space refer to the collection of defunct objects orbiting the Earth. Examples of debris include non-operational satellites, rocket bodies, and fragments generated from explosions, collisions, or faulty payload assembly.

Loading next visibility...
Identifier
14716, 1965-027P
Orbit
LEO
Country
Flag of USUS
Related business
Manufacturer
Unknown
Mission
Spacecraft
Bus & Motor
Unknown
Mass
Unknown
Launch date (UTC)
1965-04-03 (61 years ago)
Launch vehicle
Unknown
Launch site
Air Force Western Test Range (AFWTR)
Object type
Payload
Rocket body
Debris
Shape & HBR
Unknown shape, 0.1 m
Radar Cross Section
Small (<0.1 m²)

Expand to show TLE details & history
Last TLE update: 12 hours ago

TLE from 12 hours ago
0 OPS 4682 DEB
1 14716U 65027P   26035.71052862  .00000639  00000-0  21078-2 0  9994
2 14716  90.2487  11.1097 0028166 307.3810 233.4015 12.99580571422266
Epoch: 2026-02-04T17:03Z
TLE epoch observation values (Epoch: 2026-02-04T17:03:09.672Z)
Latitude
-0.63965°
Longitude
160.44344°
Altitude
1,279.573 km
Speed
7.21 km/s
True Right ascension
12h 44m 25s
True Declination
0° 38' 10"
Sunlit
Object was in full shadow at epoch
Visualization orbit readout
Latitude
Unknown
Longitude
Unknown
Altitude
Unknown
Speed
Unknown
Apparent Right ascension
Unknown
Apparent Declination
Unknown
Sunlit
N/A
Visualization observer readout
Local Sidereal Time
07:14:02
Azimuth
Unknown
Elevation
Unknown
Doppler factor
Unknown
Orbital elements
Apogee altitude
1,282.374 km
Perigee altitude
1,239.342 km
Semi-major axis
7,638.995 km
Eccentricity
0.00282
Inclination
90.2487°
RAAN
11.1097°
Arg. of periapsis
307.381°
True anomaly
233.14292°
Mean anomaly
233.4015°
Eccentric anomaly
233.27216°
Mean motion
3.25079 °/min
Orbital period
110.74 mins
BSTAR
0.0021078
Loading maneuver chart data...
Computing Atmospheric mass density...
Loading historical data...
Loading historical data...
Loading historical data...
Loading historical data...
Loading historical data...
Loading historical data...
Loading historical data...

Documentation

Showing up to 5 results
|